EHI
0 0 0 0 0 0 0 0 0 0 0 1 2 2 5 9 17 32 46 53 55 53 55 59 60 61 64 64 62 59 57 54 51 45 36 29 25 21 20 24 26 22 15 10
0 0 0 0 0 0 0 0 0 0 0 1 1 3 6 9 15 27 40 49 53 55 59 63 63 63 65 65 62 60 57 55 52 45 38 31 25 23 22 24 27 25 19 16
0 0 0 0 0 0 0 0 0 0 0 0 1 3 8 11 14 21 30 40 48 55 62 66 66 65 66 65 62 60 59 57 54 48 41 35 30 26 25 27 29 28 24 21
0 0 0 0 0 0 0 0 0 0 0 0 0 4 10 14 15 16 23 34 45 55 64 68 68 67 66 63 61 61 59 58 56 51 45 39 33 29 29 30 32 31 27 23
0 0 0 0 0 0 0 0 0 0 0 0 0 3 8 13 15 18 22 33 46 56 65 71 70 68 64 59 58 58 57 57 55 51 46 40 33 28 29 31 32 32 29 28
0 0 0 0 0 0 0 0 0 0 0 0 0 2 7 11 15 21 25 33 46 58 66 70 71 69 63 57 54 54 54 53 51 48 45 41 35 30 29 30 30 29 29 29
0 0 0 0 0 0 0 0 0 0 0 0 0 3 7 10 15 22 28 34 46 58 64 65 67 68 65 58 53 51 50 48 46 43 40 39 37 32 29 27 26 26 26 25
0 0 0 0 0 0 0 0 0 0 0 0 1 5 10 12 15 23 28 33 42 51 57 57 59 63 62 58 53 50 49 47 44 41 38 38 37 32 26 24 24 24 24 23
0 0 0 0 0 0 0 0 0 0 0 0 2 8 13 15 17 23 29 32 37 42 46 48 49 51 54 55 53 51 51 50 46 41 37 36 35 30 25 23 22 22 22 21
0 0 0 0 0 0 0 0 0 0 1 0 3 9 15 17 20 25 30 32 34 37 39 41 41 43 47 50 52 52 52 52 48 41 37 35 34 32 27 23 21 19 19 19
0 0 0 0 0 0 0 0 0 0 1 0 2 6 12 17 22 29 34 36 36 37 39 41 42 45 47 49 52 54 54 53 49 44 40 37 36 33 30 26 22 20 21 22
0 0 0 0 0 0 0 0 0 0 1 0 1 4 8 15 24 34 41 45 45 44 46 48 50 54 54 51 53 57 56 53 50 47 45 42 39 37 34 29 24 22 24 25
0 0 0 0 0 0 0 0 0 0 0 0 2 5 9 16 25 36 46 53 55 55 55 57 59 62 61 59 59 60 57 52 48 47 46 44 41 39 37 32 26 23 25 26
0 0 0 0 0 0 0 0 0 0 0 0 3 8 14 20 28 40 50 56 58 59 62 63 63 65 67 66 63 60 56 51 47 46 45 43 41 39 37 34 31 27 26 27
0 0 0 0 0 0 0 0 0 0 0 0 3 10 18 25 35 45 52 55 56 58 62 63 62 64 67 67 64 58 53 50 49 46 44 43 41 39 37 36 35 32 29 26
0 0 0 0 0 0 0 0 0 0 0 0 4 11 20 30 40 47 51 53 53 57 60 59 58 60 62 63 60 55 51 50 49 48 45 44 42 40 39 39 36 32 28 26
1 1 1 0 0 0 0 0 0 0 0 2 8 16 24 35 45 50 52 53 55 59 62 61 58 58 58 58 56 52 50 49 50 50 47 45 44 43 42 41 37 33 28 27
2 3 2 0 0 0 0 0 0 1 2 5 13 22 30 40 49 55 57 59 60 62 64 63 60 58 58 57 54 52 50 49 49 49 47 45 44 43 43 43 41 36 30 27
4 5 3 0 0 0 0 0 1 3 6 10 18 27 33 40 46 53 60 63 64 64 64 62 59 58 58 58 55 53 51 48 46 45 45 45 43 41 42 43 42 37 30 27
3 5 2 0 0 0 0 1 1 5 12 18 26 32 37 42 48 54 61 64 64 62 61 59 56 56 59 59 57 55 50 45 42 41 42 42 41 39 39 39 39 35 30 27
2 3 2 0 0 1 2 3 6 16 29 36 40 44 48 54 60 62 64 64 64 60 58 57 55 56 58 60 58 54 49 44 41 39 38 37 36 34 32 34 35 33 28 26
1 2 3 4 8 14 18 19 25 40 52 54 56 59 63 66 67 66 65 65 64 61 58 56 55 55 57 58 57 53 48 45 42 38 36 33 29 25 25 29 31 29 25 24
6 7 11 16 26 37 43 44 48 57 62 61 61 65 66 66 64 63 63 62 61 59 57 54 51 50 52 53 52 50 47 45 42 39 36 31 25 22 21 24 25 23 20 19
11 15 23 33 43 51 55 56 56 59 60 58 59 61 62 62 61 60 59 58 56 53 51 49 46 44 45 46 46 45 43 42 40 38 35 30 26 22 19 18 16 15 13 12
16 21 30 42 51 54 55 54 55 58 59 58 57 57 57 57 57 56 55 53 49 45 42 41 40 39 39 38 38 38 37 37 34 32 30 29 27 22 16 12 9 7 6 5
19 24 31 42 52 57 56 54 55 59 60 60 58 55 52 54 54 52 50 49 46 41 37 36 36 35 34 33 33 33 32 32 29 27 27 27 26 21 14 9 6 4 3 2
Wind_Speed
10 10 9 6 6 7 5 4 1 3 4 2 4 4 6 7 8 9 9 9 9 9 9 10 9 9 9 7 6 5 5 4 3 3 3 3 2 2 2 3 3 4 3 3
10 11 8 5 4 7 4 4 3 2 4 1 4 2 3 5 7 8 9 10 9 10 10 10 9 9 9 8 6 5 4 5 4 3 2 2 2 3 3 2 2 3 3 3
12 5 4 5 6 7 5 3 3 2 1 3 4 3 5 5 6 8 10 10 9 10 11 10 9 7 8 8 7 5 5 5 4 3 2 2 1 1 1 2 2 3 3 3
10 7 4 6 8 7 5 2 4 5 5 4 4 2 4 7 6 7 8 10 9 9 10 9 8 8 7 7 7 5 5 5 4 4 4 4 3 2 2 2 2 3 3 3
10 9 8 8 8 7 6 3 4 6 7 6 3 1 4 8 7 7 7 8 9 10 11 10 8 7 7 7 7 6 5 4 4 3 3 3 2 2 1 1 2 2 2 3
11 8 8 8 8 7 7 7 8 9 8 7 4 1 4 5 7 8 7 7 9 10 11 10 8 7 6 6 6 6 6 4 4 3 2 2 2 1 1 1 1 2 2 2
13 11 9 8 10 9 8 8 6 6 5 4 3 2 5 9 9 10 10 9 10 10 10 10 9 8 6 6 6 6 6 5 4 3 2 2 2 2 2 2 2 2 1 1
14 13 13 11 11 8 9 11 8 5 3 2 3 3 6 9 10 11 11 11 10 10 10 10 9 8 7 6 6 6 6 4 4 4 3 2 2 1 1 1 2 1 1 1
10 11 13 11 10 11 10 10 11 10 8 5 3 5 7 7 9 11 11 10 9 9 9 10 9 9 7 6 5 5 5 4 4 4 4 2 1 1 1 0 1 1 1 0
12 8 11 12 10 13 12 9 7 8 6 6 5 5 5 8 9 10 10 10 9 9 9 9 8 8 8 7 6 5 5 4 4 4 3 3 2 2 1 0 1 1 2 2
14 11 9 11 12 13 12 10 7 7 8 7 1 1 4 6 6 8 10 10 9 9 9 8 6 8 8 8 8 6 6 5 4 3 2 2 2 2 1 0 0 0 1 1
12 10 9 11 12 12 12 12 10 7 6 7 3 2 5 6 7 7 8 9 8 8 9 9 8 7 6 7 7 6 5 5 4 3 3 2 2 2 1 1 0 0 0 0
9 9 10 11 11 13 12 12 11 10 7 6 5 5 6 7 8 8 8 9 8 8 7 8 7 6 6 5 5 5 4 4 4 4 3 3 2 2 1 0 0 0 0 0
7 10 12 12 9 11 13 13 13 12 9 7 4 7 7 7 8 9 9 8 9 8 7 7 6 5 5 5 5 4 3 4 4 4 3 3 2 2 1 1 1 1 0 0
8 11 14 15 14 12 13 15 15 13 11 8 4 6 9 8 9 9 9 8 8 8 7 7 6 6 5 5 4 4 4 4 4 4 3 3 3 2 2 2 2 1 1 1
7 9 12 15 17 15 13 13 14 13 11 10 6 2 7 9 9 9 8 7 7 7 7 6 7 7 5 4 4 4 4 4 3 3 3 3 2 2 2 2 2 2 2 2
8 7 11 13 15 16 14 12 12 11 10 8 5 4 9 9 8 9 8 7 6 5 5 5 6 6 6 5 4 4 3 4 3 2 2 2 2 2 2 2 2 2 2 2
8 7 8 11 12 16 11 10 10 10 8 6 4 5 8 10 10 8 6 6 6 5 5 4 5 6 6 5 5 4 4 3 3 2 2 2 1 1 2 2 2 1 2 2
10 8 9 10 13 13 10 9 9 8 6 5 5 6 9 11 11 8 6 7 6 6 5 4 5 5 5 5 5 5 4 4 3 2 2 1 1 1 2 2 1 1 2 2
12 8 10 10 12 12 10 8 6 6 7 5 5 6 6 8 5 6 8 8 8 6 5 5 6 6 6 5 5 5 4 4 3 2 1 1 2 1 1 1 1 1 1 1
13 12 13 13 12 8 5 7 7 7 4 6 7 7 6 6 6 9 10 9 8 7 6 6 6 5 5 5 5 4 4 3 2 2 2 2 2 1 1 1 1 2 2 2
11 11 12 12 13 7 2 4 3 4 6 8 9 9 11 13 12 11 10 8 8 7 7 7 6 6 5 5 5 4 3 3 2 2 2 2 2 1 1 2 1 2 2 2
8 7 6 4 3 3 5 5 7 8 9 9 10 12 12 13 11 11 9 8 8 7 7 6 7 6 5 5 5 4 3 3 3 2 2 2 2 2 2 1 1 1 2 2
5 4 3 2 3 4 5 7 7 9 9 9 10 10 11 12 11 10 8 7 7 7 6 6 6 6 5 5 5 4 4 3 3 2 2 2 2 2 2 2 1 1 1 0
3 3 2 2 5 5 6 6 7 8 10 11 10 10 10 11 10 9 7 7 6 6 5 5 5 5 5 5 4 4 3 2 2 2 1 1 2 3 2 3 4 3 3 2
2 1 2 4 4 4 5 6 8 9 9 10 10 10 10 9 9 8 7 6 6 5 5 5 5 5 4 4 4 3 3 2 1 1 1 1 1 2 2 3 4 8 6 7
Wind_Direction
230 239 241 230 227 250 275 297 263 123 105 101 116 124 138 144 143 139 143 145 148 152 144 141 145 145 144 145 153 165 169 159 166 172 177 183 193 204 212 214 182 183 206 185
234 233 246 262 257 262 253 265 260 144 115 104 105 124 162 146 147 147 148 148 150 150 140 143 149 148 149 152 159 165 168 166 180 179 178 189 197 208 199 201 163 194 199 197
240 244 221 244 255 266 260 264 292 293 171 211 167 186 180 156 147 142 146 147 152 150 145 144 149 150 153 157 162 168 161 164 179 174 177 190 178 236 200 183 178 203 206 207
239 240 242 246 254 261 262 236 269 279 267 246 221 173 168 162 155 145 144 145 145 138 136 142 148 152 156 160 160 154 155 163 166 175 193 189 191 207 206 197 185 191 207 211
234 228 232 234 246 258 277 287 256 263 267 272 255 178 164 154 145 138 134 135 137 134 136 141 147 150 156 160 157 154 151 159 166 184 197 199 208 208 205 200 184 199 208 215
254 238 236 242 242 250 273 272 256 247 254 253 248 217 131 141 138 132 125 127 133 132 135 139 144 144 149 150 153 152 151 158 169 189 194 193 220 235 255 249 254 232 221 222
237 232 229 239 242 225 236 250 251 237 234 249 208 162 130 134 138 131 133 137 135 136 140 143 146 146 147 148 150 144 146 156 167 181 187 192 202 219 235 234 232 241 243 236
219 220 215 219 233 238 229 244 255 272 279 263 236 139 121 130 129 130 133 130 134 140 144 147 149 148 150 151 147 141 141 151 166 172 172 188 188 208 238 238 252 234 247 251
236 223 199 205 221 240 235 243 264 268 265 254 187 129 129 142 141 134 130 128 136 138 139 142 145 143 146 147 144 141 140 152 166 163 157 168 169 191 268 304 281 309 318 264
259 254 202 192 213 231 250 255 268 275 279 272 183 169 158 158 149 139 132 136 138 134 137 138 139 144 145 146 144 138 140 146 156 161 167 157 161 157 169 296 14 16 359 9
248 257 226 198 206 225 224 240 255 277 278 286 275 99 142 155 156 143 140 140 140 142 138 133 141 136 143 145 144 146 144 152 156 156 149 137 140 147 145 159 25 8 356 20
229 246 244 223 211 227 230 235 237 251 272 288 293 138 155 169 153 142 139 135 135 137 132 134 136 127 130 132 137 139 146 155 155 148 140 133 131 128 135 150 202 268 23 18
226 244 240 229 214 209 232 232 237 245 259 268 277 144 158 148 144 148 136 130 129 126 124 129 128 131 129 125 125 131 147 150 149 142 139 134 135 133 135 165 131 70 67 59
242 240 249 242 233 210 217 231 233 237 242 245 223 144 156 158 141 132 123 126 130 129 129 129 125 119 120 120 121 130 132 125 127 125 122 123 125 129 131 130 104 92 86 115
243 238 249 263 268 248 222 222 226 231 248 259 219 170 156 147 133 127 128 128 130 135 138 135 131 125 124 124 126 121 121 117 121 125 129 138 137 129 128 110 91 74 64 76
233 253 253 254 259 263 246 223 222 227 236 243 241 172 131 133 127 128 129 133 134 141 143 143 141 138 140 137 134 131 135 126 124 131 132 126 132 134 124 109 104 95 79 70
219 242 255 251 247 253 246 230 223 224 230 237 230 167 131 130 124 127 132 133 133 136 135 140 143 143 142 140 134 143 143 141 141 131 125 130 135 131 130 132 120 113 104 94
228 231 246 252 248 242 244 242 234 227 224 212 183 135 116 116 108 102 110 119 122 122 121 120 129 132 133 135 141 140 134 130 134 135 133 131 137 131 112 111 117 124 120 114
219 220 238 245 243 238 243 238 229 220 209 195 168 143 126 120 114 108 104 103 104 108 114 121 127 122 122 127 132 130 126 125 121 120 127 135 140 121 119 129 140 142 134 125
216 207 231 241 247 240 232 228 232 215 198 168 150 139 134 137 150 127 115 106 100 91 92 106 114 112 110 110 114 120 125 125 126 122 116 111 104 106 125 123 125 127 132 116
212 208 222 239 246 253 250 217 207 221 183 132 128 128 130 107 93 108 106 101 100 96 91 89 98 102 106 111 114 115 112 109 108 109 106 105 100 102 117 106 112 131 130 115
217 212 215 232 242 235 255 231 196 114 99 108 114 111 104 102 106 106 102 99 99 96 90 88 87 88 91 104 109 106 91 75 72 79 83 78 80 81 96 108 124 138 136 137
224 229 216 219 217 61 58 77 98 108 107 106 108 109 112 115 113 110 110 106 99 95 90 90 92 88 84 86 94 96 82 73 75 77 80 84 79 66 65 77 94 136 156 159
215 242 207 154 124 107 104 100 95 105 112 110 107 113 115 114 112 110 106 101 97 92 89 89 89 87 82 76 79 82 77 73 83 90 96 99 96 82 70 51 39 42 34 64
236 202 182 131 119 104 85 93 107 109 107 107 111 111 110 113 115 114 109 103 96 94 88 86 85 85 84 81 78 82 80 84 91 99 97 112 114 110 92 61 34 39 42 24
293 288 198 152 133 113 110 103 108 112 112 112 111 106 106 109 113 111 108 102 99 96 92 92 88 84 85 84 81 73 74 82 86 100 78 87 119 110 111 111 82 50 59 57